FW0896 Weather Reports


time (UTC)temp
F
wind
direction
speed
knots
gust
knots
rain 1hr
in
rain 24hr
in
rain mn
in
humidity
%
barometer
mb
20260831231505 84 250 0.0 0.0 0.00 0.00 0.00 76 1011.7
20260831230005 84 250 0.0 0.0 0.00 0.00 0.00 74 1011.6
20260831224504 84 277 0.0 0.0 0.00 0.00 0.00 71 1011.7
20260831223004 86 276 0.0 0.0 0.00 0.00 0.00 73 1011.7
20260831221501 85 297 0.0 0.0 0.00 0.00 0.00 74 1011.5
20260831220104 86 281 0.0 0.9 0.00 0.00 0.00 74 1011.4
20260831214623 86 281 0.0 1.7 0.00 0.00 0.00 77 1011.4
20260831213056 85 20 0.0 3.5 0.00 0.00 0.00 76 1011.4
20260831211555 85 340 0.0 0.0 0.00 0.00 0.00 76 1011.5
20260831210051 84 340 0.0 2.6 0.00 0.00 0.00 80 1011.4
20260831204556 83 1 0.0 2.6 0.00 0.00 0.00 80 1011.3
20260831203051 83 12 0.9 2.6 0.00 0.00 0.00 83 1011.3
20260831201549 82 353 0.9 2.6 0.00 0.00 0.00 84 1011.3
20260831200048 81 330 0.9 3.5 0.00 0.00 0.00 88 1011.2
20260831194543 80 329 0.0 2.6 0.00 0.00 0.00 90 1011.3
20260831193037 78 328 1.7 3.5 0.00 0.00 0.00 91 1010.7
20260831191536 78 325 1.7 3.5 0.00 0.00 0.00 90 1010.9
20260831190053 79 342 1.7 3.5 0.00 0.00 0.00 89 1010.6
20260831184538 79 340 1.7 3.5 0.00 0.00 0.00 90 1010.6
20260831183046 78 329 1.7 4.3 0.00 0.00 0.00 91 1010.5
20260831181533 78 333 1.7 3.5 0.00 0.00 0.00 91 1010.7
20260831180031 77 328 0.9 3.5 0.00 0.00 0.00 91 1011.0
20260831174530 77 316 0.9 4.3 0.00 0.00 0.00 91 1011.0
20260831173029 77 323 0.9 3.5 0.00 0.00 0.00 90 1011.2
20260831171531 77 262 0.0 0.0 0.00 0.00 0.00 89 1011.1
20260831170027 78 259 0.0 1.7 0.00 0.00 0.00 89 1011.2
20260831164529 77 231 0.0 3.5 0.00 0.00 0.00 90 1011.1
20260831163037 77 271 0.0 0.9 0.00 0.00 0.00 90 1010.8
20260831161522 76 271 0.0 1.7 0.00 0.00 0.00 90 1011.1
20260831160034 76 271 0.0 1.7 0.00 0.00 0.00 91 1011.0
20260831154522 76 243 0.9 2.6 0.00 0.00 0.00 91 1010.9
20260831153016 76 261 0.0 1.7 0.00 0.00 0.00 91 1010.7
20260831151520 76 267 0.9 2.6 0.00 0.00 0.00 91 1010.4
20260831150010 75 265 0.9 2.6 0.00 0.00 0.00 93 1010.3
20260831144516 75 255 0.9 3.5 0.00 0.00 0.00 94 1010.2
20260831143003 74 261 0.9 2.6 0.00 0.00 0.00 96 1010.1
20260831141557 73 259 1.7 2.6 0.00 0.00 0.00 96 1010.2
20260831140057 73 272 1.7 3.5 0.00 0.00 0.00 96 1009.9
20260831134550 73 257 1.7 4.3 0.00 0.00 0.00 97 1009.7
20260831133050 72 245 1.7 3.5 0.00 0.00 0.00 98 1009.5
20260831131544 72 217 1.7 5.2 0.00 0.00 0.00 97 1009.3
20260831130038 72 213 1.7 4.3 0.00 0.00 0.00 98 1009.1
20260831124544 71 217 2.6 4.3 0.00 0.00 0.00 98 1009.0
20260831123029 71 235 3.5 5.2 0.00 0.00 0.00 98 1008.7
20260831121529 70 219 2.6 5.2 0.00 0.00 0.00 99 1008.5
20260831120047 68 185 1.7 6.1 0.00 0.00 0.00 98 1008.0
20260831114527 69 196 0.9 3.5 0.00 0.00 0.00 98 1008.0
20260831113027 68 188 0.9 1.7 0.00 0.00 0.00 98 1007.9
20260831111525 69 182 0.9 1.7 0.00 0.00 0.00 98 1007.8
20260831110027 69 195 1.7 4.3 0.00 0.00 0.00 98 1007.8
20260831104525 69 179 0.9 2.6 0.00 0.00 0.00 98 1007.7
20260831103025 69 182 0.0 0.0 0.00 0.00 0.00 98 1007.8
20260831101523 69 178 0.0 0.0 0.00 0.00 0.00 98 1007.7
20260831100021 69 174 0.0 0.0 0.00 0.00 0.00 98 1007.7
20260831094521 69 176 0.0 0.0 0.00 0.00 0.00 98 1008.0
20260831093021 69 173 0.0 0.0 0.00 0.00 0.00 98 1008.0
20260831091519 69 174 0.0 0.9 0.00 0.00 0.00 98 1007.9
20260831090019 69 176 0.9 1.7 0.00 0.00 0.00 98 1008.0
20260831084520 69 178 0.9 1.7 0.00 0.00 0.00 97 1008.0
20260831083016 69 179 0.9 1.7 0.00 0.00 0.00 98 1007.6
20260831081519 70 176 0.9 2.6 0.00 0.00 0.00 98 1007.6
20260831080028 70 172 0.9 2.6 0.00 0.00 0.00 97 1007.4
20260831074512 70 178 0.9 1.7 0.00 0.00 0.00 97 1007.5
20260831073010 70 179 0.9 2.6 0.00 0.00 0.00 97 1007.7
20260831071508 70 180 0.9 1.7 0.00 0.00 0.00 97 1007.8
20260831070012 70 172 0.0 2.6 0.00 0.00 0.00 97 1008.0
20260831064506 70 178 0.9 2.6 0.00 0.00 0.00 97 1008.0
20260831063007 70 177 0.9 2.6 0.00 0.00 0.00 96 1008.2
20260831061505 71 179 0.9 2.6 0.00 0.00 0.00 97 1008.2
20260831060004 71 171 0.9 2.6 0.00 0.00 0.00 96 1008.3
20260831054503 71 178 0.9 2.6 0.00 0.00 0.00 96 1008.4
20260831053003 71 172 0.0 1.7 0.00 0.00 0.00 96 1008.5
20260831051608 71 186 0.0 1.7 0.00 0.00 0.00 96 1008.6
20260831050056 71 184 0.0 2.6 0.00 0.00 0.00 96 1008.6
20260831044607 71 169 0.9 2.6 0.00 0.00 0.00 96 1008.6
20260831043056 71 169 0.9 2.6 0.00 0.00 0.00 95 1008.4
20260831041555 71 171 0.9 2.6 0.00 0.00 0.00 95 1008.4
20260831040055 71 177 0.9 2.6 0.00 0.00 0.00 95 1008.2
20260831034554 71 167 1.7 3.5 0.00 0.00 0.00 96 1008.2
20260831033053 71 186 1.7 4.3 0.00 0.00 0.00 95 1008.4
20260831031553 72 179 1.7 3.5 0.00 0.00 0.00 95 1008.5
20260831030052 72 190 1.7 4.3 0.00 0.00 0.00 95 1008.4
20260831024552 72 168 0.9 2.6 0.00 0.00 0.00 95 1008.6
20260831023051 72 169 0.9 2.6 0.00 0.00 0.00 94 1008.8
20260831021549 73 141 0.9 3.5 0.00 0.00 0.00 94 1008.7
20260831020053 73 188 0.9 2.6 0.00 0.00 0.00 93 1008.7
20260831014549 73 179 0.0 3.5 0.00 0.00 0.00 93 1008.5
20260831013103 74 182 0.9 3.5 0.00 0.00 0.00 92 1008.4
20260831011549 74 173 1.7 3.5 0.00 0.00 0.00 91 1008.4
20260831010052 75 160 0.9 3.5 0.00 0.00 0.00 89 1008.2
20260831004547 75 170 0.9 3.5 0.00 0.00 0.00 87 1008.2
20260831003046 76 171 0.9 3.5 0.00 0.00 0.00 86 1008.1
20260831001545 77 181 1.7 4.3 0.00 0.00 0.00 85 1008.0
20260831000045 77 176 0.9 3.5 0.00 0.00 0.00 83 1007.9
20260830234552 78 179 2.6 7.0 0.00 0.00 0.00 83 1007.8
20260830233044 78 163 1.7 7.0 0.00 0.00 0.00 82 1007.8